Wrangell, AK

10:52 AM AKST on December 18, 2017 (GMT -0900)
Wrangell

Weather History for PAWG - January, 2013

Change the Weather History Date:

Wednesday, January 23, 2013

  Actual Average Record
Temperature  
Mean Temperature 38 °F -  
Max Temperature 42 °F 36 °F 48 °F (1968)
Min Temperature 35 °F 27 °F -2 °F (1972)
Degree Days  
Heating Degree Days 26    
Moisture  
Dew Point 35 °F    
Average Humidity 84    
Maximum Humidity 93    
Minimum Humidity 70    
Precipitation  
Precipitation 0.13 in - - ()
Sea Level Pressure  
Sea Level Pressure 29.71 in    
Wind  
Wind Speed 6 mph (ESE)    
Max Wind Speed 14 mph    
Max Gust Speed 20 mph    
Visibility 10 miles    
Events      
Averages and records for this station are not official NWS values.
T = Trace of Precipitation, MM = Missing Value Source: NWS Daily Summary

Daily Weather History Graph

Daily Weather History Graph

Search for Another Location

Airport or City:

Trip Planner

Search our weather history database for the weather conditions in past years. The results will help you decide how hot, cold, wet, or windy it might be!

Date:

Astronomy

Jan. 23, 2013 Rise Set
Actual Time 8:01 AM AKST 4:02 PM AKST
Civil Twilight 7:17 AM AKST 4:45 PM AKST
Nautical Twilight 6:31 AM AKST 5:32 PM AKST
Astronomical Twilight 5:46 AM AKST 6:16 PM AKST
Moon 1:08 PM AKST (1/23) 5:29 AM AKST (1/23)
Length of Visible Light 9h 27m
Length of Day
8h 00m
Waxing Gibbous, 90% of the Moon is Illuminated
Jan 23
Waxing Gibbous
Jan 26
Full
Feb 3
Last Quarter
Feb 9
New
Feb 17
First Quarter

Hourly Weather History & Observations

Time (AKST) Temp. Windchill Dew Point Humidity Pressure Visibility Wind Dir Wind Speed Gust Speed Precip Events Conditions
12:16 AM 37.4 °F - 33.8 °F 87% 29.68 in 10.0 mi Calm Calm - 0.01 in   Overcast
12:36 AM 37.4 °F 33.8 °F 33.8 °F 87% 29.68 in 9.0 mi NW 4.6 mph - 0.02 in   Overcast
12:56 AM 35.6 °F - 33.8 °F 93% 29.68 in 10.0 mi Calm Calm - 0.02 in   Overcast
1:16 AM 35.6 °F 31.7 °F 32.0 °F 87% 29.68 in 10.0 mi WNW 4.6 mph - 0.01 in   Overcast
1:36 AM 35.6 °F 31.7 °F 32.0 °F 87% 29.68 in 10.0 mi West 4.6 mph - 0.02 in   Overcast
1:56 AM 35.6 °F 31.7 °F 32.0 °F 87% 29.68 in 10.0 mi WNW 4.6 mph - 0.02 in   Overcast
2:16 AM 35.6 °F - 32.0 °F 87% 29.68 in 10.0 mi Calm Calm - 0.01 in   Mostly Cloudy
2:36 AM 37.4 °F - 33.8 °F 87% 29.69 in 10.0 mi Calm Calm - 0.02 in   Overcast
2:56 AM 37.4 °F - 35.6 °F 93% 29.68 in 10.0 mi Calm Calm - 0.03 in   Overcast
3:16 AM 37.4 °F 33.8 °F 35.6 °F 93% 29.68 in 10.0 mi ENE 4.6 mph - N/A   Overcast
3:36 AM 39.2 °F 33.0 °F 35.6 °F 87% 29.68 in 10.0 mi East 9.2 mph - N/A   Overcast
3:56 AM 39.2 °F 32.5 °F 35.6 °F 87% 29.68 in 10.0 mi East 10.4 mph - N/A   Overcast
4:16 AM 39.2 °F 32.5 °F 35.6 °F 87% 29.68 in 10.0 mi SE 10.4 mph - N/A   Overcast
4:36 AM 39.2 °F 32.0 °F 35.6 °F 87% 29.67 in 10.0 mi ESE 11.5 mph - N/A   Overcast
4:56 AM 39.2 °F 31.2 °F 35.6 °F 87% 29.67 in 10.0 mi ESE 13.8 mph - N/A   Overcast
5:16 AM 39.2 °F 32.5 °F 35.6 °F 87% 29.67 in 10.0 mi ESE 10.4 mph - N/A   Overcast
5:36 AM 39.2 °F 33.0 °F 35.6 °F 87% 29.67 in 10.0 mi ESE 9.2 mph - N/A   Overcast
5:56 AM 39.2 °F 33.6 °F 35.6 °F 87% 29.67 in 10.0 mi East 8.1 mph - N/A   Overcast
6:16 AM 39.2 °F 32.0 °F 35.6 °F 87% 29.67 in 10.0 mi East 11.5 mph 19.6 mph N/A   Overcast
6:36 AM 39.2 °F 34.2 °F 35.6 °F 87% 29.68 in 10.0 mi East 6.9 mph - N/A   Overcast
6:56 AM 39.2 °F 32.0 °F 35.6 °F 87% 29.68 in 10.0 mi ESE 11.5 mph - N/A   Overcast
7:16 AM 39.2 °F 37.0 °F 33.8 °F 81% 29.69 in 10.0 mi South 3.5 mph - N/A   Overcast
7:36 AM 39.2 °F 32.5 °F 35.6 °F 87% 29.69 in 10.0 mi ESE 10.4 mph - N/A   Overcast
7:56 AM 39.2 °F 32.0 °F 35.6 °F 87% 29.68 in 10.0 mi ESE 11.5 mph - N/A   Overcast
8:16 AM 39.2 °F 32.0 °F 35.6 °F 87% 29.69 in 10.0 mi ESE 11.5 mph - N/A   Overcast
8:36 AM 39.2 °F 33.0 °F 35.6 °F 87% 29.69 in 10.0 mi SE 9.2 mph - N/A   Overcast
8:56 AM 39.2 °F 33.0 °F 35.6 °F 87% 29.70 in 10.0 mi ESE 9.2 mph - N/A   Mostly Cloudy
9:16 AM 39.2 °F 34.2 °F 35.6 °F 87% 29.70 in 10.0 mi ESE 6.9 mph - N/A   Mostly Cloudy
9:36 AM 39.2 °F 32.5 °F 35.6 °F 87% 29.70 in 10.0 mi East 10.4 mph 16.1 mph N/A   Mostly Cloudy
9:56 AM 39.2 °F 32.0 °F 35.6 °F 87% 29.70 in 10.0 mi ENE 11.5 mph - N/A   Mostly Cloudy
10:16 AM 39.2 °F 33.6 °F 35.6 °F 87% 29.70 in 10.0 mi East 8.1 mph - N/A   Mostly Cloudy
10:36 AM 39.2 °F 32.0 °F 35.6 °F 87% 29.71 in 10.0 mi ENE 11.5 mph - N/A   Mostly Cloudy
10:56 AM 39.2 °F 34.2 °F 35.6 °F 87% 29.70 in 10.0 mi NNE 6.9 mph - N/A   Mostly Cloudy
11:16 AM 41.0 °F 38.0 °F 35.6 °F 81% 29.71 in 10.0 mi WSW 4.6 mph - N/A   Mostly Cloudy
11:36 AM 41.0 °F 37.1 °F 35.6 °F 81% 29.70 in 10.0 mi East 5.8 mph - N/A   Mostly Cloudy
11:56 AM 41.0 °F 34.7 °F 35.6 °F 81% 29.69 in 10.0 mi ESE 10.4 mph - N/A   Mostly Cloudy
12:16 PM 41.0 °F 35.2 °F 35.6 °F 81% 29.69 in 10.0 mi East 9.2 mph - N/A   Mostly Cloudy
12:36 PM 41.0 °F 34.3 °F 35.6 °F 81% 29.68 in 10.0 mi East 11.5 mph - N/A   Mostly Cloudy
12:56 PM 41.0 °F 35.8 °F 37.4 °F 87% 29.69 in 10.0 mi ESE 8.1 mph - N/A   Mostly Cloudy
1:16 PM 41.0 °F 36.4 °F 35.6 °F 81% 29.69 in 10.0 mi East 6.9 mph - N/A   Mostly Cloudy
1:36 PM 41.0 °F 33.9 °F 35.6 °F 81% 29.68 in 10.0 mi East 12.7 mph - N/A   Mostly Cloudy
1:56 PM 41.0 °F - 35.6 °F 81% 29.69 in 10.0 mi Calm Calm - N/A   Overcast
2:16 PM 42.8 °F 41.1 °F 35.6 °F 76% 29.69 in 10.0 mi NE 3.5 mph - N/A   Overcast
2:36 PM 42.8 °F 36.6 °F 35.6 °F 76% 29.69 in 10.0 mi SE 11.5 mph - N/A   Overcast
2:56 PM 42.8 °F 36.2 °F 35.6 °F 76% 29.68 in 10.0 mi ESE 12.7 mph - N/A   Overcast
3:16 PM 41.0 °F 33.9 °F 35.6 °F 81% 29.69 in 10.0 mi ESE 12.7 mph 17.3 mph N/A   Overcast
3:36 PM 42.8 °F 36.6 °F 33.8 °F 70% 29.69 in 10.0 mi SE 11.5 mph - N/A   Overcast
3:56 PM 41.0 °F 34.7 °F 33.8 °F 76% 29.70 in 10.0 mi ESE 10.4 mph - N/A   Overcast
4:16 PM 39.2 °F 33.6 °F 35.6 °F 87% 29.70 in 10.0 mi East 8.1 mph - 0.01 in   Overcast
4:36 PM 41.0 °F 35.2 °F 33.8 °F 76% 29.70 in 10.0 mi ESE 9.2 mph 16.1 mph 0.01 in   Overcast
4:56 PM 41.0 °F 35.2 °F 35.6 °F 81% 29.70 in 10.0 mi ESE 9.2 mph - 0.01 in   Overcast
5:16 PM 41.0 °F 35.2 °F 33.8 °F 76% 29.70 in 10.0 mi SE 9.2 mph 18.4 mph N/A   Overcast
5:36 PM 41.0 °F 34.7 °F 33.8 °F 76% 29.70 in 10.0 mi ESE 10.4 mph 17.3 mph N/A   Overcast
5:56 PM 39.2 °F 32.0 °F 33.8 °F 81% 29.71 in 10.0 mi ESE 11.5 mph - 0.01 in   Overcast
6:16 PM 39.2 °F 33.0 °F 33.8 °F 81% 29.71 in 10.0 mi SE 9.2 mph - N/A   Overcast
6:36 PM 39.2 °F 33.6 °F 33.8 °F 81% 29.72 in 10.0 mi SSE 8.1 mph - N/A   Overcast
6:56 PM 39.2 °F 34.2 °F 33.8 °F 81% 29.72 in 10.0 mi South 6.9 mph - 0.01 in   Overcast
7:16 PM 39.2 °F 35.9 °F 33.8 °F 81% 29.73 in 10.0 mi South 4.6 mph - N/A   Overcast
7:36 PM 39.2 °F - 33.8 °F 81% 29.74 in 10.0 mi Calm Calm - 0.01 in   Overcast
7:56 PM 39.2 °F - 33.8 °F 81% 29.74 in 10.0 mi Calm Calm - 0.02 in   Overcast
8:16 PM 39.2 °F - 33.8 °F 81% 29.75 in 10.0 mi Calm Calm - N/A   Overcast
8:36 PM 39.2 °F - 33.8 °F 81% 29.76 in 10.0 mi Calm Calm - N/A   Overcast
8:56 PM 39.2 °F - 33.8 °F 81% 29.76 in 10.0 mi Calm Calm - N/A   Overcast
9:16 PM 39.2 °F 35.9 °F 33.8 °F 81% 29.76 in 10.0 mi NW 4.6 mph - 0.01 in   Overcast
9:36 PM 37.4 °F 33.8 °F 33.8 °F 87% 29.77 in 10.0 mi West 4.6 mph - 0.01 in   Overcast
9:56 PM 39.2 °F - 33.8 °F 81% 29.77 in 10.0 mi Calm Calm - 0.01 in   Overcast
10:16 PM 39.2 °F - 33.8 °F 81% 29.78 in 10.0 mi Calm Calm - N/A   Overcast
10:36 PM 39.2 °F - 33.8 °F 81% 29.79 in 10.0 mi Calm Calm - N/A   Overcast
10:56 PM 39.2 °F - 33.8 °F 81% 29.79 in 10.0 mi Calm Calm - N/A   Overcast
11:16 PM 39.2 °F 37.0 °F 33.8 °F 81% 29.80 in 10.0 mi NW 3.5 mph - N/A   Overcast
11:36 PM 39.2 °F 32.0 °F 33.8 °F 81% 29.79 in 10.0 mi ENE 11.5 mph - N/A   Overcast
11:56 PM 39.2 °F 31.6 °F 33.8 °F 81% 29.80 in 10.0 mi East 12.7 mph - N/A   Mostly Cloudy